#timestamp,LO_Frequency,Hit,Temp,Hum 
1479110415.4,286046973.5,N,0.0,0.0
1479110435.2,286046971.4,N,0.0,0.0
1479110455.1,286046973.3,N,0.0,0.0
1479110456.0,286046973.3,N,0.0,0.0
1479110475.8,286046975.1,N,0.0,0.0
1479110495.7,286046973.4,N,0.0,0.0
1479110515.5,286046971.3,N,0.0,0.0
1479110535.3,286046975.3,N,0.0,0.0
1479110555.2,286046978.1,N,0.0,0.0
1479110575.9,286046976.2,N,0.0,0.0
1479110595.7,286046974.3,N,0.0,0.0
1479110615.6,286046974.2,N,0.0,0.0
1479110635.4,286046975.7,N,0.0,0.0
1479110655.3,286046977.1,N,0.0,0.0
1479110675.1,286046973.1,N,0.0,0.0
1479110676.0,286046973.1,N,0.0,0.0
1479110695.8,286046977.8,N,0.0,0.0
1479110715.7,286046976.9,N,0.0,0.0
1479110735.5,286046976.2,N,0.0,0.0
1479110755.3,286046975.9,N,0.0,0.0
1479110775.2,286046980.4,N,0.0,0.0
1479110795.0,286046977.3,N,0.0,0.0
1479110795.9,286046977.3,N,0.0,0.0
1479110815.8,286046979.6,N,0.0,0.0
1479110835.6,286046977.9,N,0.0,0.0
1479110855.4,286046977.7,N,0.0,0.0
1479110875.3,286046979.7,N,0.0,0.0
1479110895.1,286046980.3,N,0.0,0.0
1479110915.8,286046980.1,N,0.0,0.0
1479110935.7,286046980.2,N,0.0,0.0
1479110955.5,286046979.2,N,0.0,0.0
1479110975.3,286046979.6,N,0.0,0.0
1479110995.2,286046979.2,N,0.0,0.0
1479111015.0,286046979.6,N,0.0,0.0
1479111015.9,286046979.6,N,0.0,0.0
1479111035.8,286046981.2,N,0.0,0.0
1479111055.6,286046979.7,N,0.0,0.0
1479111075.4,286046981.2,N,0.0,0.0
1479111095.3,286046979.0,N,0.0,0.0
1479111115.1,286046982.0,N,0.0,0.0
1479111135.8,286046980.5,N,0.0,0.0
1479111155.7,286046982.3,N,0.0,0.0
1479111175.5,286046980.6,N,0.0,0.0
1479111195.4,286046982.3,N,0.0,0.0
1479111215.2,286046981.2,N,0.0,0.0
1479111235.0,286046980.9,N,0.0,0.0
1479111235.9,286046980.9,N,0.0,0.0
1479111255.8,286046980.9,N,0.0,0.0
1479111275.6,286046981.9,N,0.0,0.0
1479111295.4,286046980.4,N,0.0,0.0
1479111315.3,286046980.0,N,0.0,0.0
1479111335.1,286046980.0,N,0.0,0.0
1479111355.9,286046978.1,N,0.0,0.0
1479111375.7,286046982.0,N,0.0,0.0
1479111395.5,286046982.8,N,0.0,0.0
1479111415.4,286046980.6,N,0.0,0.0
1479111435.2,286046982.9,N,0.0,0.0
1479111455.0,286046982.5,N,0.0,0.0
1479111456.0,286046982.5,N,0.0,0.0
1479111475.8,286046984.9,N,0.0,0.0
1479111495.6,286046982.6,N,0.0,0.0
1479111515.5,286046984.2,N,0.0,0.0
1479111535.3,286046984.3,N,0.0,0.0
1479111555.1,286046984.3,N,0.0,0.0
1479111575.9,286046982.8,N,0.0,0.0
1479111595.7,286046982.7,N,0.0,0.0
1479111615.5,286046985.1,N,0.0,0.0
1479111635.4,286046980.9,N,0.0,0.0
1479111655.2,286046979.1,N,0.0,0.0
1479111675.1,286046977.9,N,0.0,0.0
1479111676.0,286046977.9,N,0.0,0.0
1479111695.8,286046979.1,N,0.0,0.0
1479111715.6,286046981.8,N,0.0,0.0
1479111735.5,286046981.8,N,0.0,0.0
1479111755.3,286046978.9,N,0.0,0.0
1479111775.1,286046981.5,N,0.0,0.0
1479111795.9,286046982.5,N,0.0,0.0
1479111815.7,286046986.8,N,0.0,0.0
1479111835.6,286046982.2,N,0.0,0.0
1479111855.4,286046979.4,N,0.0,0.0
1479111875.2,286046982.5,N,0.0,0.0
1479111895.1,286046985.1,N,0.0,0.0
1479111896.0,286046985.1,N,0.0,0.0
1479111915.8,286046980.5,N,0.0,0.0
1479111935.6,286046979.4,N,0.0,0.0
1479111955.5,286046979.5,N,0.0,0.0
1479111975.3,286046981.1,N,0.0,0.0
1479111995.2,286046978.9,N,0.0,0.0
1479112015.9,286046981.8,N,0.0,0.0
1479112035.7,286046981.6,N,0.0,0.0
1479112055.6,286046977.8,N,0.0,0.0
1479112075.4,286046977.3,N,0.0,0.0
1479112095.2,286046977.7,N,0.0,0.0
1479112115.1,286046966.2,N,0.0,0.0
1479112116.0,286046966.2,N,0.0,0.0
1479112135.8,286046984.5,N,0.0,0.0
1479112155.7,286046979.9,N,0.0,0.0
1479112175.5,286046979.5,N,0.0,0.0
1479112195.3,286046979.2,N,0.0,0.0
1479112215.2,286046977.9,N,0.0,0.0
1479112235.9,286046981.4,N,0.0,0.0
1479112255.7,286046977.3,N,0.0,0.0
1479112275.6,286046980.1,N,0.0,0.0
1479112295.4,286046977.9,N,0.0,0.0
1479112315.2,286046977.5,N,0.0,0.0
1479112335.1,286046976.5,N,0.0,0.0
1479112336.0,286046976.5,N,0.0,0.0
1479112355.8,286046976.3,N,0.0,0.0
1479112375.7,286046969.5,N,0.0,0.0
1479112395.5,286046978.7,N,0.0,0.0
1479112415.3,286046978.2,N,0.0,0.0
1479112435.2,286046978.8,N,0.0,0.0
1479112455.0,286046977.5,N,0.0,0.0
1479112455.9,286046977.5,N,0.0,0.0
1479112475.7,286046977.6,N,0.0,0.0
1479112495.6,286046977.9,N,0.0,0.0
1479112515.4,286046981.9,N,0.0,0.0
1479112535.3,286046978.9,N,0.0,0.0
1479112555.1,286046979.6,N,0.0,0.0
1479112556.0,286046979.6,N,0.0,0.0
1479112575.8,286046981.1,N,0.0,0.0
1479112595.7,286046980.6,N,0.0,0.0
1479112615.5,286046982.5,N,0.0,0.0
1479112635.3,286046985.0,N,0.0,0.0
1479112655.2,286046982.9,N,0.0,0.0
1479112675.0,286046980.6,N,0.0,0.0
1479112675.9,286046980.6,N,0.0,0.0
1479112695.8,286046983.5,N,0.0,0.0
1479112715.6,286046980.8,N,0.0,0.0
1479112735.4,286046983.2,N,0.0,0.0
1479112755.3,286046981.3,N,0.0,0.0
1479112775.1,286046981.2,N,0.0,0.0
1479112795.8,286046977.4,N,0.0,0.0
1479112815.7,286046977.4,N,0.0,0.0
1479112835.5,286046978.5,N,0.0,0.0
1479112855.4,286046976.0,N,0.0,0.0
1479112875.2,286046978.4,N,0.0,0.0
1479112895.0,286046977.3,N,0.0,0.0
1479112895.9,286046977.3,N,0.0,0.0
1479112915.8,286046980.3,N,0.0,0.0
1479112935.6,286046980.1,N,0.0,0.0
1479112955.4,286046982.0,N,0.0,0.0
1479112975.3,286046977.5,N,0.0,0.0
1479112995.1,286046979.5,N,0.0,0.0
1479113015.9,286046981.2,N,0.0,0.0
1479113035.7,286046981.2,N,0.0,0.0
1479113055.5,286046980.9,N,0.0,0.0
1479113075.4,286046983.2,N,0.0,0.0
1479113095.2,286046982.2,N,0.0,0.0
1479113115.0,286046983.5,N,0.0,0.0
1479113115.9,286046983.5,N,0.0,0.0
1479113135.8,286046983.1,N,0.0,0.0
1479113155.6,286046982.7,N,0.0,0.0
1479113175.5,286046982.3,N,0.0,0.0
1479113195.3,286046982.2,N,0.0,0.0
1479113215.1,286046983.7,N,0.0,0.0
1479113235.9,286046982.2,N,0.0,0.0
1479113255.7,286046979.3,N,0.0,0.0
1479113275.5,286046981.0,N,0.0,0.0
1479113295.4,286046979.3,N,0.0,0.0
1479113315.2,286046981.6,N,0.0,0.0
1479113335.0,286046979.0,N,0.0,0.0
1479113336.0,286046979.0,N,0.0,0.0
1479113355.8,286046985.1,N,0.0,0.0
1479113375.6,286046979.0,N,0.0,0.0
1479113395.5,286046980.7,N,0.0,0.0
1479113415.3,286046988.1,N,0.0,0.0
1479113435.1,286046984.7,N,0.0,0.0
1479113455.9,286046982.9,N,0.0,0.0
1479113475.7,286046980.6,N,0.0,0.0
1479113495.5,286046983.3,N,0.0,0.0
1479113515.4,286046980.6,N,0.0,0.0
1479113535.2,286046982.7,N,0.0,0.0
1479113555.1,286046985.1,N,0.0,0.0
1479113556.0,286046985.1,N,0.0,0.0
1479113575.8,286046983.9,N,0.0,0.0
1479113595.6,286046984.4,N,0.0,0.0
1479113615.5,286046982.8,N,0.0,0.0
1479113635.3,286046980.1,N,0.0,0.0
1479113655.1,286046981.1,N,0.0,0.0
1479113675.9,286046982.4,N,0.0,0.0
1479113695.7,286046984.1,N,0.0,0.0
1479113715.6,286046984.6,N,0.0,0.0
1479113735.4,286046983.1,N,0.0,0.0
1479113755.2,286046982.7,N,0.0,0.0
1479113775.1,286046982.2,N,0.0,0.0
1479113776.0,286046982.2,N,0.0,0.0
1479113795.8,286046980.9,N,0.0,0.0
1479113815.6,286046977.6,N,0.0,0.0
1479113835.5,286046988.5,N,0.0,0.0
1479113855.3,286046992.4,N,0.0,0.0
1479113875.2,286046992.7,N,0.0,0.0
1479113895.9,286046992.5,N,0.0,0.0
1479113915.7,286046994.8,N,0.0,0.0
1479113935.6,286046994.4,N,0.0,0.0
1479113955.4,286046982.1,N,0.0,0.0
1479113975.2,286046983.1,N,0.0,0.0
1479113995.1,286046982.2,N,0.0,0.0
1479113996.0,286046982.2,N,0.0,0.0
